Location: Joplin, MO
(37.0842°N, 94.5133°W)
Time: 01:20:49
(UTC+01:00)

Envisat - Pass Details

Date: 28 November 2022
Orbit: 763 x 765 km, 98.2° (Epoch: 27 January)

Event Time Altitude Azimuth Distance (km) Brightness Sun altitude
Rises 11:49:22 0° 8° (N) 3,238 6.3 -27.6°
Reaches altitude 10° 11:51:43 10° 4° (N) 2,308 5.4 -27.1°
Enters shadow 11:51:50 11° 4° (N) 2,259 5.4 -27.1°
